Regional Weather Roundup
Issued by NWS

Home | Current Version | Previous Version | Text Only | Print | Product List | Glossary On
Versions: 1 2 3 4 5 6 7 8 9 10 11 12 13 14 15 16 17 18 19 20 21 22 23 24 25 26 27 28 29 30 31 32 33 34 35 36 37 38 39 40 41 42 43 44 45 46 47 48 49 50
000
ASUS44 KBMX 271410
RWRAL

ALABAMA REGIONAL WEATHER ROUNDUP
NATIONAL WEATHER SERVICE BIRMINGHAM AL
800 AM CST TUE JAN 27 2015

NOTE: "FAIR" INDICATES FEW OR NO CLOUDS BELOW 12,000 FEET
WITH NO SIGNIFICANT WEATHER AND/OR OBSTRUCTIONS TO VISIBILITY.

THE REMARK "TC" DENOTES TEMPERATURE IN DEGREES CELSIUS.

ALZ001>011-014-016>018-020-271500-
NORTH ALABAMA

CITY           SKY/WX    TMP DP  RH WIND       PRES   REMARKS
MUSCLE SHOALS  PTSUNNY   37  32  82 NW5       30.03R WCI  33
HUNTSVILLE     MOSUNNY   36  31  82 W5        29.99R WCI  32
DECATUR        MOSUNNY   38  32  79 NW6       30.00R WCI  33
HALEYVILLE       N/A     34  32  92 CALM      30.03R
GADSDEN        SUNNY     37  34  87 W3        29.97R
$$

ALZ012-013-022-023-030>036-040>044-271500-
WEST CENTRAL ALABAMA

CITY           SKY/WX    TMP DP  RH WIND       PRES   REMARKS
TUSCALOOSA     SUNNY     37  34  89 CALM      30.04R
$$

ALZ015-024>027-033>036-040>044-271500-
CENTRAL ALABAMA

CITY           SKY/WX    TMP DP  RH WIND       PRES   REMARKS
BIRMINGHAM     SUNNY     38  33  82 CALM      30.01R
MONTGOMERY     SUNNY     40  33  76 W9        30.01R WCI  34
SHELBY CO ARPT SUNNY     38  34  85 CALM      30.00R
MAXWELL AFB    SUNNY     38  34  83 VRB3      30.00R
GREENVILLE     FAIR      44  34  67 NW8       30.00R
$$

ALZ019-021-028-029-037-038-045>048-271500-
EAST CENTRAL ALABAMA

CITY           SKY/WX    TMP DP  RH WIND       PRES   REMARKS
ANNISTON       SUNNY     36  32  85 S9        29.96R WCI  29
ALEXANDER CITY SUNNY     37  33  85 CALM      29.96R
AUBURN         SUNNY     36  28  75 W6        29.97S WCI  31
$$

ALZ051>064-271500-
SOUTHWEST ALABAMA

CITY           SKY/WX    TMP DP  RH WIND       PRES   REMARKS
MOBILE         SUNNY     45  36  70 W6        30.08R
BROOKLEY FIELD SUNNY     51  37  58 VRB7      30.08R
EVERGREEN      SUNNY     44  36  73 VRB5      30.04R
$$

ALZ049-050-065>069-271500-
SOUTHEAST ALABAMA

CITY           SKY/WX    TMP DP  RH WIND       PRES   REMARKS
DOTHAN         SUNNY     43  34  70 W10       30.02R
OZARK          SUNNY     40  33  78 W6        30.01R
TROY           SUNNY     43  33  68 CALM      30.01R
EUFAULA        LGT RAIN  42  34  73 W7        29.97R
$$



USA.gov is the U.S. government's official web portal to all federal, state and local government web resources and services.